• In Uzbekistan
  • List of Countries
  • For 7 days
  • Water Temperature
  • Weather Map
  • Weather Widgets
  • user-avatar
    Login

    Hourly Weather Lozova

    Today, 21 November, Thursday

    Time Temperature Precipitation Wind Pressure Humidity
    00:00 -4°C° 0 mm 7 mps 759 mmHg 66%
    01:00 -6°C° 0 mm 7 mps 760 mmHg 67%
    02:00 -7°C° 0 mm 7 mps 760 mmHg 68%
    03:00 -7°C° 0 mm 7 mps 760 mmHg 66%
    04:00 -8°C° 0 mm 7 mps 760 mmHg 63%
    05:00 -9°C° 0 mm 7 mps 760 mmHg 61%
    06:00 -10°C° 0 mm 8 mps 761 mmHg 58%
    07:00 -10°C° 0 mm 8 mps 761 mmHg 56%
    08:00 -11°C° 0 mm 8 mps 761 mmHg 54%
    09:00 -10°C° 0 mm 8 mps 761 mmHg 49%
    10:00 -8°C° 0 mm 8 mps 761 mmHg 44%
    11:00 -8°C° 0 mm 8 mps 761 mmHg 40%
    12:00 -7°C° 0 mm 8 mps 761 mmHg 38%
    13:00 -7°C° 0 mm 8 mps 761 mmHg 36%
    14:00 -7°C° 0 mm 8 mps 761 mmHg 34%
    15:00 -8°C° 0 mm 8 mps 761 mmHg 32%
    16:00 -10°C° 0 mm 8 mps 761 mmHg 30%
    17:00 -11°C° 0 mm 8 mps 761 mmHg 28%
    18:00 -11°C° 0 mm 8 mps 761 mmHg 28%
    19:00 -11°C° 0 mm 8 mps 762 mmHg 28%
    20:00 -11°C° 0 mm 8 mps 762 mmHg 29%
    21:00 -12°C° 0 mm 8 mps 762 mmHg 30%
    22:00 -12°C° 0 mm 7 mps 762 mmHg 32%
    23:00 -12°C° 0 mm 7 mps 762 mmHg 33%

    Tomorrow, 22 November, Friday

    Time Temperature Precipitation Wind Pressure Humidity
    00:00 -13°C° 0 mm 7 mps 762 mmHg 34%
    01:00 -13°C° 0 mm 7 mps 762 mmHg 36%
    02:00 -13°C° 0 mm 7 mps 762 mmHg 37%
    03:00 -13°C° 0 mm 7 mps 762 mmHg 38%
    04:00 -13°C° 0 mm 7 mps 761 mmHg 39%
    05:00 -14°C° 0 mm 7 mps 761 mmHg 41%
    06:00 -13°C° 0 mm 7 mps 761 mmHg 41%
    07:00 -13°C° 0 mm 7 mps 762 mmHg 41%
    08:00 -13°C° 0 mm 8 mps 762 mmHg 42%
    09:00 -12°C° 0 mm 8 mps 762 mmHg 39%
    10:00 -10°C° 0 mm 8 mps 761 mmHg 35%
    11:00 -8°C° 0 mm 8 mps 761 mmHg 32%
    12:00 -7°C° 0 mm 8 mps 761 mmHg 31%
    13:00 -7°C° 0 mm 8 mps 760 mmHg 31%
    14:00 -6°C° 0 mm 8 mps 760 mmHg 30%
    15:00 -7°C° 0 mm 7 mps 760 mmHg 33%
    16:00 -8°C° 0 mm 7 mps 760 mmHg 35%
    17:00 -9°C° 0 mm 7 mps 760 mmHg 37%
    18:00 -9°C° 0 mm 7 mps 760 mmHg 39%
    19:00 -9°C° 0 mm 7 mps 760 mmHg 40%
    20:00 -9°C° 0 mm 7 mps 760 mmHg 41%
    21:00 -11°C° 0 mm 7 mps 760 mmHg 41%
    22:00 -11°C° 0 mm 7 mps 760 mmHg 42%
    23:00 -10°C° 0 mm 6 mps 760 mmHg 42%

    Day after tomorrow, 23 November, Saturday

    Time Temperature Precipitation Wind Pressure Humidity
    00:00 -11°C° 0 mm 6 mps 760 mmHg 43%
    01:00 -11°C° 0 mm 6 mps 760 mmHg 44%
    02:00 -11°C° 0 mm 6 mps 760 mmHg 46%
    03:00 -11°C° 0 mm 6 mps 759 mmHg 46%
    04:00 -11°C° 0 mm 6 mps 759 mmHg 46%
    05:00 -12°C° 0 mm 6 mps 759 mmHg 47%
    06:00 -12°C° 0 mm 7 mps 759 mmHg 46%
    07:00 -12°C° 0 mm 7 mps 759 mmHg 46%
    08:00 -12°C° 0 mm 7 mps 759 mmHg 45%
    09:00 -9°C° 0 mm 7 mps 759 mmHg 40%
    10:00 -8°C° 0 mm 7 mps 759 mmHg 35%
    11:00 -6°C° 0 mm 7 mps 759 mmHg 30%
    12:00 -6°C° 0 mm 7 mps 758 mmHg 29%
    13:00 -4°C° 0 mm 7 mps 758 mmHg 27%
    14:00 -4°C° 0 mm 7 mps 757 mmHg 26%
    15:00 -6°C° 0 mm 7 mps 757 mmHg 28%
    16:00 -6°C° 0 mm 6 mps 757 mmHg 30%
    17:00 -8°C° 0 mm 6 mps 757 mmHg 33%
    18:00 -8°C° 0 mm 6 mps 757 mmHg 33%
    19:00 -8°C° 0 mm 6 mps 757 mmHg 34%
    20:00 -8°C° 0 mm 6 mps 757 mmHg 34%
    21:00 -8°C° 0 mm 6 mps 757 mmHg 35%
    22:00 -8°C° 0 mm 6 mps 757 mmHg 36%
    23:00 -9°C° 0 mm 6 mps 757 mmHg 37%

    24 November, Sunday

    Time Temperature Precipitation Wind Pressure Humidity
    00:00 -9°C° 0 mm 6 mps 757 mmHg 38%
    01:00 -9°C° 0 mm 6 mps 757 mmHg 39%
    02:00 -9°C° 0 mm 6 mps 757 mmHg 40%
    03:00 -9°C° 0 mm 6 mps 757 mmHg 41%
    04:00 -10°C° 0 mm 6 mps 756 mmHg 43%
    05:00 -10°C° 0 mm 6 mps 756 mmHg 44%
    06:00 -10°C° 0 mm 6 mps 756 mmHg 45%
    07:00 -9°C° 0 mm 6 mps 756 mmHg 45%
    08:00 -9°C° 0 mm 6 mps 756 mmHg 46%
    09:00 -8°C° 0 mm 6 mps 756 mmHg 45%
    10:00 -5°C° 0 mm 6 mps 756 mmHg 43%
    11:00 -4°C° 0 mm 6 mps 756 mmHg 41%
    12:00 -4°C° 0 mm 6 mps 756 mmHg 40%
    13:00 -3°C° 0 mm 6 mps 755 mmHg 38%
    14:00 -3°C° 0 mm 6 mps 755 mmHg 37%
    15:00 -4°C° 0 mm 6 mps 755 mmHg 39%
    16:00 -5°C° 0 mm 6 mps 755 mmHg 40%
    17:00 -6°C° 0 mm 5 mps 755 mmHg 42%
    18:00 -6°C° 0 mm 5 mps 755 mmHg 43%
    19:00 -6°C° 0 mm 5 mps 755 mmHg 44%
    20:00 -6°C° 0 mm 5 mps 755 mmHg 45%
    21:00 -7°C° 0 mm 5 mps 754 mmHg 48%
    22:00 -7°C° 0 mm 5 mps 754 mmHg 50%
    23:00 -7°C° 0 mm 5 mps 754 mmHg 53%

    25 November, Monday

    Time Temperature Precipitation Wind Pressure Humidity
    00:00 -7°C° 0 mm 4 mps 754 mmHg 55%
    01:00 -7°C° 0 mm 4 mps 754 mmHg 58%
    02:00 -8°C° 0 mm 4 mps 754 mmHg 60%
    03:00 -8°C° 0 mm 5 mps 754 mmHg 62%
    04:00 -8°C° 0 mm 5 mps 754 mmHg 64%
    05:00 -8°C° 0 mm 5 mps 754 mmHg 66%
    06:00 -8°C° 0 mm 5 mps 754 mmHg 68%
    07:00 -8°C° 0 mm 5 mps 754 mmHg 70%
    08:00 -7°C° 0 mm 5 mps 754 mmHg 72%
    09:00 -6°C° 0 mm 6 mps 753 mmHg 70%
    10:00 -4°C° 0 mm 6 mps 753 mmHg 68%
    11:00 -2°C° 0 mm 6 mps 753 mmHg 66%
    12:00 -1°C° 0 mm 6 mps 753 mmHg 64%
    13:00 0°C° 0 mm 5 mps 753 mmHg 63%
    14:00 +1°C° 0 mm 5 mps 752 mmHg 61%
    15:00 0°C° 0 mm 4 mps 752 mmHg 67%
    16:00 -2°C° 0 mm 4 mps 752 mmHg 72%
    17:00 -3°C° 0 mm 4 mps 752 mmHg 77%
    18:00 -3°C° 0 mm 4 mps 752 mmHg 77%
    19:00 -4°C° 0 mm 4 mps 752 mmHg 77%
    20:00 -5°C° 0 mm 5 mps 752 mmHg 76%
    21:00 -5°C° 0 mm 5 mps 752 mmHg 75%
    22:00 -4°C° 0 mm 4 mps 751 mmHg 73%
    23:00 -4°C° 0 mm 4 mps 751 mmHg 72%

    26 November, Tuesday

    Time Temperature Precipitation Wind Pressure Humidity
    00:00 -5°C° 0 mm 4 mps 751 mmHg 73%
    01:00 -5°C° 0 mm 4 mps 751 mmHg 74%
    02:00 -5°C° 0 mm 4 mps 751 mmHg 75%
    03:00 -5°C° 0 mm 4 mps 751 mmHg 77%
    04:00 -5°C° 0 mm 4 mps 751 mmHg 79%
    05:00 -6°C° 0 mm 5 mps 750 mmHg 81%
    06:00 -6°C° 0.1 mm 5 mps 750 mmHg 82%
    07:00 -5°C° 0.1 mm 5 mps 750 mmHg 83%
    08:00 -5°C° 0.1 mm 5 mps 750 mmHg 84%
    09:00 -4°C° 0.3 mm 5 mps 750 mmHg 85%
    10:00 -4°C° 0.3 mm 5 mps 750 mmHg 86%
    11:00 -4°C° 0.3 mm 5 mps 750 mmHg 87%
    12:00 -2°C° 0.3 mm 4 mps 749 mmHg 86%
    13:00 -2°C° 0.3 mm 4 mps 749 mmHg 85%
    14:00 -1°C° 0.3 mm 4 mps 749 mmHg 84%
    15:00 -1°C° 0.2 mm 4 mps 748 mmHg 84%
    16:00 -1°C° 0.2 mm 4 mps 748 mmHg 83%
    17:00 -1°C° 0.2 mm 4 mps 748 mmHg 82%
    18:00 -2°C° 0 mm 4 mps 748 mmHg 82%
    19:00 -2°C° 0 mm 4 mps 748 mmHg 83%
    20:00 -2°C° 0 mm 4 mps 748 mmHg 83%
    21:00 -2°C° 0 mm 4 mps 748 mmHg 81%
    22:00 -2°C° 0 mm 4 mps 748 mmHg 79%
    23:00 -2°C° 0 mm 4 mps 748 mmHg 78%
    Show more